Time,TemperatureF,DewpointF,PressureIn,WindDirection,WindDirectionDegrees,WindSpeedMPH,WindSpeedGustMPH,Humidity,HourlyPrecipIn,Conditions,Clouds,dailyrainin,SoftwareType,DateUTC
2013-01-23 00:02:00,14.3,5.7,30.32,ESE,105,0.0,0.0,68,0.00,,,0.00,vanprod-2.5-rc3,2013-01-23 07:02:00,
2013-01-23 00:07:00,14.3,6.0,30.32,ESE,105,0.0,0.0,69,0.00,,,0.00,vanprod-2.5-rc3,2013-01-23 07:07:00,
2013-01-23 00:12:00,14.3,5.7,30.32,ESE,105,0.0,0.0,68,0.00,,,0.00,vanprod-2.5-rc3,2013-01-23 07:12:00,
2013-01-23 00:17:00,14.5,5.9,30.33,ESE,105,0.0,0.0,68,0.00,,,0.00,vanprod-2.5-rc3,2013-01-23 07:17:00,
2013-01-23 00:22:00,14.6,6.0,30.33,ESE,105,0.0,0.0,68,0.00,,,0.00,vanprod-2.5-rc3,2013-01-23 07:22:00,
2013-01-23 00:27:00,14.6,6.3,30.33,ESE,105,0.0,0.0,69,0.00,,,0.00,vanprod-2.5-rc3,2013-01-23 07:27:00,
2013-01-23 00:32:00,14.3,5.7,30.32,ESE,105,0.0,0.0,68,0.00,,,0.00,vanprod-2.5-rc3,2013-01-23 07:32:00,
2013-01-23 00:38:00,14.2,5.9,30.33,ESE,105,0.0,0.0,69,0.00,,,0.00,vanprod-2.5-rc3,2013-01-23 07:38:00,
2013-01-23 00:42:00,14.1,5.8,30.32,ESE,105,0.0,0.0,69,0.00,,,0.00,vanprod-2.5-rc3,2013-01-23 07:42:00,
2013-01-23 00:48:00,14.0,5.7,30.33,ESE,105,0.0,0.0,69,0.00,,,0.00,vanprod-2.5-rc3,2013-01-23 07:48:00,
2013-01-23 00:53:00,13.5,4.9,30.33,ESE,105,0.0,0.0,68,0.00,,,0.00,vanprod-2.5-rc3,2013-01-23 07:53:00,
2013-01-23 00:58:00,13.3,4.7,30.32,ESE,105,0.0,0.0,68,0.00,,,0.00,vanprod-2.5-rc3,2013-01-23 07:58:00,
2013-01-23 01:03:00,12.8,3.9,30.32,East,95,3.0,4.0,67,0.00,,,0.00,vanprod-2.5-rc3,2013-01-23 08:03:00,
2013-01-23 01:08:00,12.3,3.4,30.31,East,88,5.0,5.0,67,0.00,,,0.00,vanprod-2.5-rc3,2013-01-23 08:08:00,
2013-01-23 01:13:00,12.0,3.8,30.32,East,87,3.0,4.0,69,0.00,,,0.00,vanprod-2.5-rc3,2013-01-23 08:13:00,
2013-01-23 01:18:00,11.9,4.3,30.32,ESE,107,0.0,0.0,71,0.00,,,0.00,vanprod-2.5-rc3,2013-01-23 08:18:00,
2013-01-23 01:23:00,11.9,4.6,30.34,SE,143,0.0,0.0,72,0.00,,,0.00,vanprod-2.5-rc3,2013-01-23 08:23:00,
2013-01-23 01:28:00,11.8,4.5,30.32,SE,143,0.0,0.0,72,0.00,,,0.00,vanprod-2.5-rc3,2013-01-23 08:28:00,
2013-01-23 01:33:00,11.8,4.8,30.34,SE,143,0.0,0.0,73,0.00,,,0.00,vanprod-2.5-rc3,2013-01-23 08:33:00,
2013-01-23 01:38:00,11.8,5.1,30.35,SE,143,0.0,0.0,74,0.00,,,0.00,vanprod-2.5-rc3,2013-01-23 08:38:00,
2013-01-23 01:43:00,11.8,5.1,30.35,SE,143,0.0,0.0,74,0.00,,,0.00,vanprod-2.5-rc3,2013-01-23 08:43:00,
2013-01-23 01:48:00,11.8,5.1,30.35,SE,143,0.0,0.0,74,0.00,,,0.00,vanprod-2.5-rc3,2013-01-23 08:48:00,
2013-01-23 01:53:00,12.0,5.3,30.35,SE,143,0.0,0.0,74,0.00,,,0.00,vanprod-2.5-rc3,2013-01-23 08:53:00,
2013-01-23 01:58:00,12.2,5.5,30.35,SE,143,0.0,0.0,74,0.00,,,0.00,vanprod-2.5-rc3,2013-01-23 08:58:00,
2013-01-23 02:03:00,12.3,5.6,30.35,SE,142,0.0,3.0,74,0.00,,,0.00,vanprod-2.5-rc3,2013-01-23 09:03:00,
2013-01-23 02:08:00,12.1,4.5,30.33,East,90,3.0,3.0,71,0.00,,,0.00,vanprod-2.5-rc3,2013-01-23 09:08:00,
2013-01-23 02:13:00,11.9,4.6,30.36,SSE,167,0.0,0.0,72,0.00,,,0.00,vanprod-2.5-rc3,2013-01-23 09:13:00,
2013-01-23 02:18:00,11.8,4.5,30.34,SSE,165,0.0,0.0,72,0.00,,,0.00,vanprod-2.5-rc3,2013-01-23 09:18:00,
2013-01-23 02:23:00,11.7,4.7,30.34,SSE,165,0.0,0.0,73,0.00,,,0.00,vanprod-2.5-rc3,2013-01-23 09:23:00,
2013-01-23 02:28:00,11.9,5.2,30.36,SSE,165,0.0,0.0,74,0.00,,,0.00,vanprod-2.5-rc3,2013-01-23 09:28:00,
2013-01-23 02:33:00,12.3,5.6,30.36,SSE,165,0.0,0.0,74,0.00,,,0.00,vanprod-2.5-rc3,2013-01-23 09:33:00,
2013-01-23 02:38:00,12.5,5.5,30.37,SSE,165,0.0,0.0,73,0.00,,,0.00,vanprod-2.5-rc3,2013-01-23 09:38:00,
2013-01-23 02:43:00,12.4,4.8,30.37,SSE,165,0.0,0.0,71,0.00,,,0.00,vanprod-2.5-rc3,2013-01-23 09:43:00,
2013-01-23 02:48:00,12.1,4.5,30.35,SSE,165,0.0,0.0,71,0.00,,,0.00,vanprod-2.5-rc3,2013-01-23 09:48:00,
2013-01-23 02:53:00,11.5,3.6,30.34,SSE,165,0.0,0.0,70,0.00,,,0.00,vanprod-2.5-rc3,2013-01-23 09:53:00,
2013-01-23 02:58:00,11.3,4.0,30.35,SSE,165,0.0,0.0,72,0.00,,,0.00,vanprod-2.5-rc3,2013-01-23 09:58:00,
2013-01-23 03:03:00,11.5,4.5,30.34,SSE,165,0.0,0.0,73,0.00,,,0.00,vanprod-2.5-rc3,2013-01-23 10:03:00,
2013-01-23 03:08:00,12.0,5.0,30.36,ESE,114,0.0,0.0,73,0.00,,,0.00,vanprod-2.5-rc3,2013-01-23 10:08:00,
2013-01-23 03:13:00,12.0,4.4,30.34,ESE,115,0.0,0.0,71,0.00,,,0.00,vanprod-2.5-rc3,2013-01-23 10:13:00,
2013-01-23 03:18:00,11.9,4.9,30.36,ESE,114,0.0,0.0,73,0.00,,,0.00,vanprod-2.5-rc3,2013-01-23 10:18:00,
2013-01-23 03:23:00,11.9,4.9,30.37,ESE,114,0.0,0.0,73,0.00,,,0.00,vanprod-2.5-rc3,2013-01-23 10:23:00,
2013-01-23 03:28:00,12.4,5.7,30.36,ENE,62,3.0,3.0,74,0.00,,,0.00,vanprod-2.5-rc3,2013-01-23 10:28:00,
2013-01-23 03:33:00,12.8,5.8,30.35,NE,53,3.0,4.0,73,0.00,,,0.00,vanprod-2.5-rc3,2013-01-23 10:33:00,
2013-01-23 03:38:00,13.0,5.7,30.35,ENE,66,3.0,4.0,72,0.00,,,0.00,vanprod-2.5-rc3,2013-01-23 10:38:00,
2013-01-23 03:43:00,12.8,5.2,30.35,ENE,68,0.0,0.0,71,0.00,,,0.00,vanprod-2.5-rc3,2013-01-23 10:43:00,
2013-01-23 03:48:00,12.5,4.6,30.35,ENE,68,0.0,0.0,70,0.00,,,0.00,vanprod-2.5-rc3,2013-01-23 10:48:00,
2013-01-23 03:53:00,12.1,4.8,30.36,ENE,68,0.0,0.0,72,0.00,,,0.00,vanprod-2.5-rc3,2013-01-23 10:53:00,
2013-01-23 03:58:00,11.9,4.6,30.36,ENE,68,0.0,0.0,72,0.00,,,0.00,vanprod-2.5-rc3,2013-01-23 10:58:00,
2013-01-23 04:03:00,11.9,4.6,30.34,East,94,3.0,3.0,72,0.00,,,0.00,vanprod-2.5-rc3,2013-01-23 11:03:00,
2013-01-23 04:08:00,12.0,4.7,30.35,East,100,5.0,7.0,72,0.00,,,0.00,vanprod-2.5-rc3,2013-01-23 11:08:00,
2013-01-23 04:13:00,12.6,5.6,30.35,ESE,103,4.0,4.0,73,0.00,,,0.00,vanprod-2.5-rc3,2013-01-23 11:13:00,
2013-01-23 04:18:00,13.1,5.8,30.35,East,97,0.0,0.0,72,0.00,,,0.00,vanprod-2.5-rc3,2013-01-23 11:18:00,
2013-01-23 04:23:00,13.1,5.5,30.35,East,92,0.0,0.0,71,0.00,,,0.00,vanprod-2.5-rc3,2013-01-23 11:23:00,
2013-01-23 04:28:00,12.8,5.2,30.35,East,93,3.0,5.0,71,0.00,,,0.00,vanprod-2.5-rc3,2013-01-23 11:28:00,
2013-01-23 04:33:00,12.8,5.5,30.35,East,96,3.0,4.0,72,0.00,,,0.00,vanprod-2.5-rc3,2013-01-23 11:33:00,
2013-01-23 04:38:00,12.9,5.6,30.35,East,92,3.0,3.0,72,0.00,,,0.00,vanprod-2.5-rc3,2013-01-23 11:38:00,
2013-01-23 04:43:00,12.9,5.6,30.35,East,92,0.0,0.0,72,0.00,,,0.00,vanprod-2.5-rc3,2013-01-23 11:43:00,
2013-01-23 04:48:00,12.8,5.2,30.35,East,92,0.0,0.0,71,0.00,,,0.00,vanprod-2.5-rc3,2013-01-23 11:48:00,
2013-01-23 04:53:00,12.2,4.3,30.34,East,92,0.0,0.0,70,0.00,,,0.00,vanprod-2.5-rc3,2013-01-23 11:53:00,
2013-01-23 04:58:00,12.0,4.7,30.34,East,92,0.0,0.0,72,0.00,,,0.00,vanprod-2.5-rc3,2013-01-23 11:58:00,
2013-01-23 05:03:00,11.6,4.0,30.34,East,92,0.0,0.0,71,0.00,,,0.00,vanprod-2.5-rc3,2013-01-23 12:03:00,
2013-01-23 05:08:00,11.4,4.1,30.34,East,97,0.0,0.0,72,0.00,,,0.00,vanprod-2.5-rc3,2013-01-23 12:08:00,
2013-01-23 05:13:00,11.2,3.9,30.34,ESE,108,0.0,0.0,72,0.00,,,0.00,vanprod-2.5-rc3,2013-01-23 12:13:00,
2013-01-23 05:18:00,11.0,3.8,30.35,ESE,108,0.0,0.0,72,0.00,,,0.00,vanprod-2.5-rc3,2013-01-23 12:18:00,
2013-01-23 05:23:00,10.7,3.5,30.34,ESE,106,0.0,0.0,72,0.00,,,0.00,vanprod-2.5-rc3,2013-01-23 12:23:00,
2013-01-23 05:28:00,10.8,4.2,30.35,ESE,105,0.0,0.0,74,0.00,,,0.00,vanprod-2.5-rc3,2013-01-23 12:28:00,
2013-01-23 05:33:00,10.9,3.7,30.35,ESE,105,0.0,0.0,72,0.00,,,0.00,vanprod-2.5-rc3,2013-01-23 12:33:00,
2013-01-23 05:38:00,10.8,3.9,30.35,ESE,103,2.0,2.0,73,0.00,,,0.00,vanprod-2.5-rc3,2013-01-23 12:38:00,
2013-01-23 05:43:00,11.1,4.4,30.35,ESE,102,0.0,0.0,74,0.00,,,0.00,vanprod-2.5-rc3,2013-01-23 12:43:00,
2013-01-23 05:48:00,11.4,4.1,30.35,East,101,0.0,0.0,72,0.00,,,0.00,vanprod-2.5-rc3,2013-01-23 12:48:00,
2013-01-23 05:53:00,11.0,3.5,30.35,East,91,1.0,4.0,71,0.00,,,0.00,vanprod-2.5-rc3,2013-01-23 12:53:00,
2013-01-23 05:58:00,11.1,3.9,30.35,ENE,71,6.0,8.0,72,0.00,,,0.00,vanprod-2.5-rc3,2013-01-23 12:58:00,
2013-01-23 06:03:00,11.1,4.2,30.37,East,97,3.0,5.0,73,0.00,,,0.00,vanprod-2.5-rc3,2013-01-23 13:03:00,
2013-01-23 06:08:00,11.4,4.7,30.37,ESE,114,5.0,6.0,74,0.00,,,0.00,vanprod-2.5-rc3,2013-01-23 13:08:00,
2013-01-23 06:13:00,11.8,5.1,30.36,East,95,4.0,6.0,74,0.00,,,0.00,vanprod-2.5-rc3,2013-01-23 13:13:00,
2013-01-23 06:18:00,12.0,4.7,30.36,ENE,77,6.0,7.0,72,0.00,,,0.00,vanprod-2.5-rc3,2013-01-23 13:18:00,
2013-01-23 06:23:00,12.0,4.7,30.36,ENE,76,6.0,6.0,72,0.00,,,0.00,vanprod-2.5-rc3,2013-01-23 13:23:00,
2013-01-23 06:28:00,11.7,3.8,30.36,ENE,78,6.0,8.0,70,0.00,,,0.00,vanprod-2.5-rc3,2013-01-23 13:28:00,
2013-01-23 06:33:00,11.5,3.9,30.36,ENE,71,6.0,8.0,71,0.00,,,0.00,vanprod-2.5-rc3,2013-01-23 13:33:00,
2013-01-23 06:38:00,11.4,4.1,30.35,ENE,65,5.0,7.0,72,0.00,,,0.00,vanprod-2.5-rc3,2013-01-23 13:38:00,
2013-01-23 06:43:00,11.4,3.8,30.35,ENE,64,6.0,6.0,71,0.00,,,0.00,vanprod-2.5-rc3,2013-01-23 13:43:00,
2013-01-23 06:48:00,11.3,3.7,30.35,ENE,66,6.0,7.0,71,0.00,,,0.00,vanprod-2.5-rc3,2013-01-23 13:48:00,
2013-01-23 06:53:00,11.1,3.9,30.36,East,81,6.0,7.0,72,0.00,,,0.00,vanprod-2.5-rc3,2013-01-23 13:53:00,
2013-01-23 06:58:00,11.0,3.8,30.36,East,84,5.0,6.0,72,0.00,,,0.00,vanprod-2.5-rc3,2013-01-23 13:58:00,
2013-01-23 07:03:00,10.7,3.5,30.35,East,81,4.0,4.0,72,0.00,,,0.00,vanprod-2.5-rc3,2013-01-23 14:03:00,
2013-01-23 07:08:00,10.4,3.5,30.34,ESE,104,4.0,4.0,73,0.00,,,0.00,vanprod-2.5-rc3,2013-01-23 14:08:00,
2013-01-23 07:13:00,10.5,3.6,30.35,ESE,102,2.0,3.0,73,0.00,,,0.00,vanprod-2.5-rc3,2013-01-23 14:13:00,
2013-01-23 07:18:00,10.4,3.2,30.34,East,101,1.0,0.0,72,0.00,,,0.00,vanprod-2.5-rc3,2013-01-23 14:18:00,
2013-01-23 07:23:00,10.3,3.1,30.34,East,101,2.0,2.0,72,0.00,,,0.00,vanprod-2.5-rc3,2013-01-23 14:23:00,
2013-01-23 07:28:00,10.2,2.7,30.34,East,100,3.0,4.0,71,0.00,,,0.00,vanprod-2.5-rc3,2013-01-23 14:28:00,
2013-01-23 07:33:00,9.8,2.0,30.33,East,99,0.0,0.0,70,0.00,,,0.00,vanprod-2.5-rc3,2013-01-23 14:33:00,
2013-01-23 07:38:00,9.1,1.6,30.34,NE,42,3.0,4.0,71,0.00,,,0.00,vanprod-2.5-rc3,2013-01-23 14:38:00,
2013-01-23 07:43:00,9.0,2.1,30.34,NNE,19,2.0,2.0,73,0.00,,,0.00,vanprod-2.5-rc3,2013-01-23 14:43:00,
2013-01-23 07:48:00,8.9,2.0,30.34,NNE,19,3.0,3.0,73,0.00,,,0.00,vanprod-2.5-rc3,2013-01-23 14:48:00,
2013-01-23 07:53:00,8.7,1.8,30.34,NNE,19,0.0,0.0,73,0.00,,,0.00,vanprod-2.5-rc3,2013-01-23 14:53:00,
2013-01-23 07:58:00,8.9,2.3,30.33,NNE,19,0.0,0.0,74,0.00,,,0.00,vanprod-2.5-rc3,2013-01-23 14:58:00,
2013-01-23 08:03:00,9.1,2.8,30.33,NNE,19,0.0,0.0,75,0.00,,,0.00,vanprod-2.5-rc3,2013-01-23 15:03:00,
2013-01-23 08:08:00,9.3,2.7,30.33,NNE,19,0.0,0.0,74,0.00,,,0.00,vanprod-2.5-rc3,2013-01-23 15:08:00,
2013-01-23 08:13:00,9.9,3.3,30.33,NNE,19,0.0,1.0,74,0.00,,,0.00,vanprod-2.5-rc3,2013-01-23 15:13:00,
2013-01-23 08:18:00,9.9,3.0,30.33,NNE,19,3.0,4.0,73,0.00,,,0.00,vanprod-2.5-rc3,2013-01-23 15:18:00,
2013-01-23 08:23:00,10.3,3.7,30.33,ESE,116,4.0,4.0,74,0.00,,,0.00,vanprod-2.5-rc3,2013-01-23 15:23:00,
2013-01-23 08:28:00,10.6,4.0,30.34,SE,136,1.0,2.0,74,0.00,,,0.00,vanprod-2.5-rc3,2013-01-23 15:28:00,
2013-01-23 08:33:00,10.7,3.8,30.34,SSE,160,2.0,3.0,73,0.00,,,0.00,vanprod-2.5-rc3,2013-01-23 15:33:00,
2013-01-23 08:38:00,11.1,4.4,30.34,East,90,0.0,0.0,74,0.00,,,0.00,vanprod-2.5-rc3,2013-01-23 15:38:00,
2013-01-23 08:43:00,12.0,5.3,30.34,East,89,1.0,1.0,74,0.00,,,0.00,vanprod-2.5-rc3,2013-01-23 15:43:00,
2013-01-23 08:48:00,12.9,5.9,30.35,East,90,5.0,5.0,73,0.00,,,0.00,vanprod-2.5-rc3,2013-01-23 15:48:00,
2013-01-23 08:53:00,13.7,6.4,30.35,ENE,71,5.0,5.0,72,0.00,,,0.00,vanprod-2.5-rc3,2013-01-23 15:53:00,
2013-01-23 08:58:00,14.4,6.7,30.35,East,80,5.0,7.0,71,0.00,,,0.00,vanprod-2.5-rc3,2013-01-23 15:58:00,
2013-01-23 09:03:00,15.2,7.2,30.34,ENE,69,3.0,3.0,70,0.00,,,0.00,vanprod-2.5-rc3,2013-01-23 16:03:00,
2013-01-23 09:08:00,15.6,6.6,30.34,ENE,74,0.0,0.0,67,0.00,,,0.00,vanprod-2.5-rc3,2013-01-23 16:08:00,
2013-01-23 09:13:00,15.5,6.5,30.34,ENE,75,0.0,0.0,67,0.00,,,0.00,vanprod-2.5-rc3,2013-01-23 16:13:00,
2013-01-23 09:18:00,15.3,6.0,30.34,East,84,0.0,0.0,66,0.00,,,0.00,vanprod-2.5-rc3,2013-01-23 16:18:00,
2013-01-23 09:23:00,15.1,6.1,30.34,ESE,115,0.0,0.0,67,0.00,,,0.00,vanprod-2.5-rc3,2013-01-23 16:23:00,
2013-01-23 09:28:00,15.1,6.5,30.34,ESE,117,0.0,0.0,68,0.00,,,0.00,vanprod-2.5-rc3,2013-01-23 16:28:00,
2013-01-23 09:33:00,15.2,6.6,30.33,ESE,116,0.0,0.0,68,0.00,,,0.00,vanprod-2.5-rc3,2013-01-23 16:33:00,
2013-01-23 09:38:00,15.4,6.7,30.33,ESE,117,0.0,0.0,68,0.00,,,0.00,vanprod-2.5-rc3,2013-01-23 16:38:00,
2013-01-23 09:43:00,15.9,7.2,30.33,ESE,117,0.0,0.0,68,0.00,,,0.00,vanprod-2.5-rc3,2013-01-23 16:43:00,
2013-01-23 09:48:00,16.3,6.9,30.33,ESE,116,0.0,0.0,66,0.00,,,0.00,vanprod-2.5-rc3,2013-01-23 16:48:00,
2013-01-23 09:53:00,16.8,7.1,30.34,ESE,115,0.0,0.0,65,0.00,,,0.00,vanprod-2.5-rc3,2013-01-23 16:53:00,
2013-01-23 09:58:00,17.2,7.5,30.34,ESE,115,0.0,0.0,65,0.00,,,0.00,vanprod-2.5-rc3,2013-01-23 16:58:00,
2013-01-23 10:03:00,17.6,7.9,30.33,SSE,158,0.0,0.0,65,0.00,,,0.00,vanprod-2.5-rc3,2013-01-23 17:03:00,
2013-01-23 10:08:00,17.6,7.9,30.33,SSE,168,3.0,4.0,65,0.00,,,0.00,vanprod-2.5-rc3,2013-01-23 17:08:00,
2013-01-23 10:13:00,17.5,7.8,30.33,South,169,2.0,2.0,65,0.00,,,0.00,vanprod-2.5-rc3,2013-01-23 17:13:00,
2013-01-23 10:18:00,17.5,7.8,30.33,South,171,0.0,2.0,65,0.00,,,0.00,vanprod-2.5-rc3,2013-01-23 17:18:00,
2013-01-23 10:23:00,17.5,7.8,30.33,South,172,2.0,0.0,65,0.00,,,0.00,vanprod-2.5-rc3,2013-01-23 17:23:00,
2013-01-23 10:28:00,17.7,7.6,30.33,South,172,0.0,0.0,64,0.00,,,0.00,vanprod-2.5-rc3,2013-01-23 17:28:00,
2013-01-23 10:33:00,18.1,8.0,30.33,South,172,2.0,2.0,64,0.00,,,0.00,vanprod-2.5-rc3,2013-01-23 17:33:00,
2013-01-23 10:38:00,18.6,8.5,30.33,South,191,4.0,4.0,64,0.00,,,0.00,vanprod-2.5-rc3,2013-01-23 17:38:00,
2013-01-23 10:43:00,19.3,9.1,30.33,South,188,4.0,5.0,64,0.00,,,0.00,vanprod-2.5-rc3,2013-01-23 17:43:00,
2013-01-23 10:48:00,19.7,9.2,30.34,SSW,199,6.0,6.0,63,0.00,,,0.00,vanprod-2.5-rc3,2013-01-23 17:48:00,
2013-01-23 10:53:00,20.1,9.2,30.34,South,189,4.0,4.0,62,0.00,,,0.00,vanprod-2.5-rc3,2013-01-23 17:53:00,
2013-01-23 10:58:00,20.5,9.6,30.34,SSW,198,4.0,6.0,62,0.00,,,0.00,vanprod-2.5-rc3,2013-01-23 17:58:00,
2013-01-23 11:03:00,20.9,9.9,30.33,SSW,196,4.0,4.0,62,0.00,,,0.00,vanprod-2.5-rc3,2013-01-23 18:03:00,
2013-01-23 11:08:00,21.5,10.1,30.33,South,190,4.0,4.0,61,0.00,,,0.00,vanprod-2.5-rc3,2013-01-23 18:08:00,
2013-01-23 11:13:00,21.9,10.2,30.34,SSW,197,4.0,4.0,60,0.00,,,0.00,vanprod-2.5-rc3,2013-01-23 18:13:00,
2013-01-23 11:18:00,22.3,10.5,30.34,SSW,205,4.0,4.0,60,0.00,,,0.00,vanprod-2.5-rc3,2013-01-23 18:18:00,
2013-01-23 11:23:00,22.6,9.7,30.34,SW,230,4.0,4.0,57,0.00,,,0.00,vanprod-2.5-rc3,2013-01-23 18:23:00,
2013-01-23 11:28:00,22.6,10.1,30.33,SW,214,2.0,3.0,58,0.00,,,0.00,vanprod-2.5-rc3,2013-01-23 18:28:00,
2013-01-23 11:33:00,22.7,9.8,30.33,SW,215,2.0,4.0,57,0.00,,,0.00,vanprod-2.5-rc3,2013-01-23 18:33:00,
2013-01-23 11:38:00,22.9,10.3,30.33,SW,219,3.0,4.0,58,0.00,,,0.00,vanprod-2.5-rc3,2013-01-23 18:38:00,
2013-01-23 11:43:00,22.9,10.3,30.33,SW,221,2.0,2.0,58,0.00,,,0.00,vanprod-2.5-rc3,2013-01-23 18:43:00,
2013-01-23 11:48:00,23.1,10.5,30.33,SW,220,0.0,0.0,58,0.00,,,0.00,vanprod-2.5-rc3,2013-01-23 18:48:00,
2013-01-23 11:53:00,23.3,10.3,30.34,SW,224,4.0,4.0,57,0.00,,,0.00,vanprod-2.5-rc3,2013-01-23 18:53:00,
2013-01-23 11:58:00,23.8,10.8,30.32,SSW,213,4.0,4.0,57,0.00,,,0.00,vanprod-2.5-rc3,2013-01-23 18:58:00,
2013-01-23 12:03:00,24.4,11.0,30.33,SW,223,0.0,0.0,56,0.00,,,0.00,vanprod-2.5-rc3,2013-01-23 19:03:00,
2013-01-23 12:08:00,25.2,11.7,30.32,SSW,199,3.0,3.0,56,0.00,,,0.00,vanprod-2.5-rc3,2013-01-23 19:08:00,
2013-01-23 12:13:00,25.9,11.1,30.31,SW,216,3.0,4.0,53,0.00,,,0.00,vanprod-2.5-rc3,2013-01-23 19:13:00,
2013-01-23 12:18:00,26.5,10.8,30.32,SW,221,2.0,4.0,51,0.00,,,0.00,vanprod-2.5-rc3,2013-01-23 19:18:00,
2013-01-23 12:23:00,26.8,10.7,30.32,SW,222,2.0,2.0,50,0.00,,,0.00,vanprod-2.5-rc3,2013-01-23 19:23:00,
2013-01-23 12:28:00,27.0,10.9,30.32,SW,222,0.0,0.0,50,0.00,,,0.00,vanprod-2.5-rc3,2013-01-23 19:28:00,
2013-01-23 12:33:00,27.3,11.1,30.31,SW,222,0.0,0.0,50,0.00,,,0.00,vanprod-2.5-rc3,2013-01-23 19:33:00,
2013-01-23 12:38:00,27.8,12.0,30.30,SW,222,0.0,0.0,51,0.00,,,0.00,vanprod-2.5-rc3,2013-01-23 19:38:00,
2013-01-23 12:43:00,28.4,12.1,30.30,SW,222,0.0,0.0,50,0.00,,,0.00,vanprod-2.5-rc3,2013-01-23 19:43:00,
2013-01-23 12:48:00,28.9,11.7,30.31,SW,222,0.0,0.0,48,0.00,,,0.00,vanprod-2.5-rc3,2013-01-23 19:48:00,
2013-01-23 12:53:00,29.5,12.2,30.32,SW,222,0.0,0.0,48,0.00,,,0.00,vanprod-2.5-rc3,2013-01-23 19:53:00,
2013-01-23 12:58:00,30.2,13.4,30.31,South,173,0.0,0.0,49,0.00,,,0.00,vanprod-2.5-rc3,2013-01-23 19:58:00,
2013-01-23 13:03:00,30.6,11.8,30.31,NE,53,2.0,2.0,45,0.00,,,0.00,vanprod-2.5-rc3,2013-01-23 20:03:00,
2013-01-23 13:08:00,30.5,11.2,30.31,NNE,15,3.0,3.0,44,0.00,,,0.00,vanprod-2.5-rc3,2013-01-23 20:08:00,
2013-01-23 13:13:00,29.9,13.1,30.31,NNE,19,4.0,4.0,49,0.00,,,0.00,vanprod-2.5-rc3,2013-01-23 20:13:00,
2013-01-23 13:18:00,29.9,14.0,30.30,NNE,19,3.0,3.0,51,0.00,,,0.00,vanprod-2.5-rc3,2013-01-23 20:18:00,
2013-01-23 13:23:00,30.6,13.3,30.30,NE,55,5.0,5.0,48,0.00,,,0.00,vanprod-2.5-rc3,2013-01-23 20:23:00,
2013-01-23 13:28:00,31.0,13.6,30.30,NE,54,1.0,0.0,48,0.00,,,0.00,vanprod-2.5-rc3,2013-01-23 20:28:00,
2013-01-23 13:33:00,31.5,14.1,30.29,ENE,59,3.0,4.0,48,0.00,,,0.00,vanprod-2.5-rc3,2013-01-23 20:33:00,
2013-01-23 13:38:00,32.0,15.9,30.29,ENE,66,0.0,0.0,51,0.00,,,0.00,vanprod-2.5-rc3,2013-01-23 20:38:00,
2013-01-23 13:43:00,32.4,15.8,30.28,ENE,67,0.0,0.0,50,0.00,,,0.00,vanprod-2.5-rc3,2013-01-23 20:43:00,
2013-01-23 13:48:00,32.9,14.4,30.28,ENE,67,0.0,0.0,46,0.00,,,0.00,vanprod-2.5-rc3,2013-01-23 20:48:00,
2013-01-23 13:53:00,33.3,14.8,30.28,ENE,68,0.0,0.0,46,0.00,,,0.00,vanprod-2.5-rc3,2013-01-23 20:53:00,
2013-01-23 13:58:00,33.3,15.3,30.28,SSE,166,0.0,0.0,47,0.00,,,0.00,vanprod-2.5-rc3,2013-01-23 20:58:00,
2013-01-23 14:03:00,33.3,14.8,30.28,SSE,166,0.0,0.0,46,0.00,,,0.00,vanprod-2.5-rc3,2013-01-23 21:03:00,
2013-01-23 14:08:00,33.0,14.0,30.28,SSE,166,0.0,0.0,45,0.00,,,0.00,vanprod-2.5-rc3,2013-01-23 21:08:00,
2013-01-23 14:13:00,33.2,14.7,30.27,SSE,166,0.0,0.0,46,0.00,,,0.00,vanprod-2.5-rc3,2013-01-23 21:13:00,
2013-01-23 14:18:00,33.4,13.8,30.27,SSE,162,0.0,0.0,44,0.00,,,0.00,vanprod-2.5-rc3,2013-01-23 21:18:00,
2013-01-23 14:23:00,33.3,14.3,30.27,SSE,162,0.0,0.0,45,0.00,,,0.00,vanprod-2.5-rc3,2013-01-23 21:23:00,
2013-01-23 14:28:00,32.9,12.3,30.27,SSE,158,0.0,0.0,42,0.00,,,0.00,vanprod-2.5-rc3,2013-01-23 21:28:00,
2013-01-23 14:33:00,32.6,12.1,30.27,NNE,19,0.0,0.0,42,0.00,,,0.00,vanprod-2.5-rc3,2013-01-23 21:33:00,
2013-01-23 14:38:00,32.4,13.4,30.28,North,360,0.0,0.0,45,0.00,,,0.00,vanprod-2.5-rc3,2013-01-23 21:38:00,
2013-01-23 14:43:00,32.2,13.8,30.28,North,360,0.0,0.0,46,0.00,,,0.00,vanprod-2.5-rc3,2013-01-23 21:43:00,
2013-01-23 14:48:00,32.0,14.1,30.28,North,360,0.0,0.0,47,0.00,,,0.00,vanprod-2.5-rc3,2013-01-23 21:48:00,
2013-01-23 14:53:00,31.8,14.4,30.28,NNE,33,0.0,0.0,48,0.00,,,0.00,vanprod-2.5-rc3,2013-01-23 21:53:00,
2013-01-23 14:58:00,32.1,14.2,30.28,NNE,32,0.0,0.0,47,0.00,,,0.00,vanprod-2.5-rc3,2013-01-23 21:58:00,
2013-01-23 15:03:00,32.6,16.5,30.26,ENE,64,2.0,2.0,51,0.00,,,0.00,vanprod-2.5-rc3,2013-01-23 22:03:00,
2013-01-23 15:08:00,33.0,16.4,30.26,ENE,65,0.0,0.0,50,0.00,,,0.00,vanprod-2.5-rc3,2013-01-23 22:08:00,
2013-01-23 15:13:00,33.3,16.2,30.26,East,83,0.0,0.0,49,0.00,,,0.00,vanprod-2.5-rc3,2013-01-23 22:13:00,
2013-01-23 15:18:00,33.4,16.8,30.26,SE,140,0.0,0.0,50,0.00,,,0.00,vanprod-2.5-rc3,2013-01-23 22:18:00,
2013-01-23 15:23:00,33.2,14.7,30.26,SE,140,0.0,0.0,46,0.00,,,0.00,vanprod-2.5-rc3,2013-01-23 22:23:00,
2013-01-23 15:28:00,33.0,15.0,30.26,SE,140,0.0,0.0,47,0.00,,,0.00,vanprod-2.5-rc3,2013-01-23 22:28:00,
2013-01-23 15:33:00,33.1,14.6,30.26,SE,140,0.0,0.0,46,0.00,,,0.00,vanprod-2.5-rc3,2013-01-23 22:33:00,
2013-01-23 15:38:00,33.3,13.8,30.26,SE,140,0.0,0.0,44,0.00,,,0.00,vanprod-2.5-rc3,2013-01-23 22:38:00,
2013-01-23 15:43:00,33.6,15.0,30.27,SE,140,0.0,0.0,46,0.00,,,0.00,vanprod-2.5-rc3,2013-01-23 22:43:00,
2013-01-23 15:48:00,33.8,15.7,30.27,SE,140,0.0,0.0,47,0.00,,,0.00,vanprod-2.5-rc3,2013-01-23 22:48:00,
2013-01-23 15:53:00,33.7,16.1,30.27,SE,140,0.0,0.0,48,0.00,,,0.00,vanprod-2.5-rc3,2013-01-23 22:53:00,
2013-01-23 15:58:00,33.5,16.4,30.27,SE,140,0.0,0.0,49,0.00,,,0.00,vanprod-2.5-rc3,2013-01-23 22:58:00,
2013-01-23 16:03:00,33.2,16.6,30.25,SE,140,0.0,0.0,50,0.00,,,0.00,vanprod-2.5-rc3,2013-01-23 23:03:00,
2013-01-23 16:08:00,33.1,17.0,30.25,SE,140,0.0,0.0,51,0.00,,,0.00,vanprod-2.5-rc3,2013-01-23 23:08:00,
2013-01-23 16:13:00,32.9,15.4,30.25,SE,140,0.0,0.0,48,0.00,,,0.00,vanprod-2.5-rc3,2013-01-23 23:13:00,
2013-01-23 16:18:00,32.7,14.7,30.26,SE,140,0.0,0.0,47,0.00,,,0.00,vanprod-2.5-rc3,2013-01-23 23:18:00,
2013-01-23 16:23:00,32.6,14.6,30.26,SE,144,0.0,0.0,47,0.00,,,0.00,vanprod-2.5-rc3,2013-01-23 23:23:00,
2013-01-23 16:28:00,32.3,15.8,30.26,SSE,164,0.0,0.0,50,0.00,,,0.00,vanprod-2.5-rc3,2013-01-23 23:28:00,
2013-01-23 16:33:00,31.8,15.3,30.26,SSE,166,1.0,2.0,50,0.00,,,0.00,vanprod-2.5-rc3,2013-01-23 23:33:00,
2013-01-23 16:38:00,31.4,14.9,30.27,SSE,167,1.0,1.0,50,0.00,,,0.00,vanprod-2.5-rc3,2013-01-23 23:38:00,
2013-01-23 16:43:00,31.0,15.5,30.27,SSE,167,0.0,0.0,52,0.00,,,0.00,vanprod-2.5-rc3,2013-01-23 23:43:00,
2013-01-23 16:48:00,30.7,15.6,30.27,SSE,167,0.0,0.0,53,0.00,,,0.00,vanprod-2.5-rc3,2013-01-23 23:48:00,
2013-01-23 16:53:00,30.5,15.4,30.27,SSE,167,0.0,0.0,53,0.00,,,0.00,vanprod-2.5-rc3,2013-01-23 23:53:00,
2013-01-23 16:58:00,30.2,15.1,30.27,SSE,167,0.0,0.0,53,0.00,,,0.00,vanprod-2.5-rc3,2013-01-23 23:58:00,
2013-01-23 17:03:00,29.9,14.4,30.27,SSE,168,1.0,3.0,52,0.00,,,0.00,vanprod-2.5-rc3,2013-01-24 00:03:00,
2013-01-23 17:08:00,29.9,14.4,30.27,South,173,0.0,0.0,52,0.00,,,0.00,vanprod-2.5-rc3,2013-01-24 00:08:00,
2013-01-23 17:13:00,29.9,13.1,30.27,South,174,0.0,0.0,49,0.00,,,0.00,vanprod-2.5-rc3,2013-01-24 00:13:00,
2013-01-23 17:18:00,30.1,12.3,30.27,South,174,0.0,0.0,47,0.00,,,0.00,vanprod-2.5-rc3,2013-01-24 00:18:00,
2013-01-23 17:23:00,30.2,11.9,30.27,South,174,0.0,0.0,46,0.00,,,0.00,vanprod-2.5-rc3,2013-01-24 00:23:00,
2013-01-23 17:28:00,30.2,13.4,30.27,South,174,0.0,0.0,49,0.00,,,0.00,vanprod-2.5-rc3,2013-01-24 00:28:00,
2013-01-23 17:33:00,30.1,14.2,30.27,South,174,0.0,0.0,51,0.00,,,0.00,vanprod-2.5-rc3,2013-01-24 00:33:00,
2013-01-23 17:38:00,29.8,13.9,30.27,South,174,0.0,0.0,51,0.00,,,0.00,vanprod-2.5-rc3,2013-01-24 00:38:00,
2013-01-23 17:43:00,29.4,14.0,30.27,South,174,0.0,0.0,52,0.00,,,0.00,vanprod-2.5-rc3,2013-01-24 00:43:00,
2013-01-23 17:48:00,29.1,13.7,30.27,South,174,0.0,0.0,52,0.00,,,0.00,vanprod-2.5-rc3,2013-01-24 00:48:00,
2013-01-23 17:53:00,28.6,13.7,30.27,South,174,0.0,0.0,53,0.00,,,0.00,vanprod-2.5-rc3,2013-01-24 00:53:00,
2013-01-23 17:58:00,28.1,13.6,30.28,South,173,0.0,0.0,54,0.00,,,0.00,vanprod-2.5-rc3,2013-01-24 00:58:00,
2013-01-23 18:03:00,27.3,13.7,30.28,SE,125,0.0,3.0,56,0.00,,,0.00,vanprod-2.5-rc3,2013-01-24 01:03:00,
2013-01-23 18:08:00,26.6,13.4,30.28,SE,125,3.0,4.0,57,0.00,,,0.00,vanprod-2.5-rc3,2013-01-24 01:08:00,
2013-01-23 18:13:00,26.2,14.2,30.27,East,89,4.0,4.0,60,0.00,,,0.00,vanprod-2.5-rc3,2013-01-24 01:13:00,
2013-01-23 18:18:00,25.7,13.4,30.27,East,88,3.0,3.0,59,0.00,,,0.00,vanprod-2.5-rc3,2013-01-24 01:18:00,
2013-01-23 18:23:00,25.3,13.7,30.27,East,87,5.0,5.0,61,0.00,,,0.00,vanprod-2.5-rc3,2013-01-24 01:23:00,
2013-01-23 18:28:00,25.0,13.8,30.27,East,80,5.0,5.0,62,0.00,,,0.00,vanprod-2.5-rc3,2013-01-24 01:28:00,
2013-01-23 18:33:00,25.0,13.8,30.27,East,97,5.0,5.0,62,0.00,,,0.00,vanprod-2.5-rc3,2013-01-24 01:33:00,
2013-01-23 18:38:00,25.3,13.7,30.27,East,99,4.0,6.0,61,0.00,,,0.00,vanprod-2.5-rc3,2013-01-24 01:38:00,
2013-01-23 18:43:00,25.6,13.3,30.27,East,100,5.0,5.0,59,0.00,,,0.00,vanprod-2.5-rc3,2013-01-24 01:43:00,
2013-01-23 18:48:00,25.9,13.6,30.27,East,98,3.0,4.0,59,0.00,,,0.00,vanprod-2.5-rc3,2013-01-24 01:48:00,
2013-01-23 18:53:00,26.0,12.9,30.27,East,98,0.0,0.0,57,0.00,,,0.00,vanprod-2.5-rc3,2013-01-24 01:53:00,
2013-01-23 18:58:00,25.9,12.8,30.27,East,98,0.0,0.0,57,0.00,,,0.00,vanprod-2.5-rc3,2013-01-24 01:58:00,
2013-01-23 19:03:00,25.8,12.7,30.26,East,98,0.0,0.0,57,0.00,,,0.00,vanprod-2.5-rc3,2013-01-24 02:03:00,
2013-01-23 19:08:00,25.5,13.2,30.26,East,98,0.0,0.0,59,0.00,,,0.00,vanprod-2.5-rc3,2013-01-24 02:08:00,
2013-01-23 19:13:00,25.2,13.3,30.26,East,98,0.0,0.0,60,0.00,,,0.00,vanprod-2.5-rc3,2013-01-24 02:13:00,
2013-01-23 19:18:00,25.0,13.1,30.26,East,98,0.0,0.0,60,0.00,,,0.00,vanprod-2.5-rc3,2013-01-24 02:18:00,
2013-01-23 19:23:00,24.7,12.8,30.26,East,98,0.0,0.0,60,0.00,,,0.00,vanprod-2.5-rc3,2013-01-24 02:23:00,
2013-01-23 19:28:00,24.4,12.1,30.27,East,98,0.0,0.0,59,0.00,,,0.00,vanprod-2.5-rc3,2013-01-24 02:28:00,
2013-01-23 19:33:00,23.8,11.6,30.27,East,95,0.0,0.0,59,0.00,,,0.00,vanprod-2.5-rc3,2013-01-24 02:33:00,
2013-01-23 19:38:00,22.9,11.1,30.27,East,94,3.0,3.0,60,0.00,,,0.00,vanprod-2.5-rc3,2013-01-24 02:38:00,
2013-01-23 19:43:00,22.4,10.6,30.26,East,94,0.0,0.0,60,0.00,,,0.00,vanprod-2.5-rc3,2013-01-24 02:43:00,
2013-01-23 19:48:00,21.9,10.5,30.26,East,93,2.0,2.0,61,0.00,,,0.00,vanprod-2.5-rc3,2013-01-24 02:48:00,
2013-01-23 19:53:00,21.6,10.2,30.26,East,93,0.0,0.0,61,0.00,,,0.00,vanprod-2.5-rc3,2013-01-24 02:53:00,
2013-01-23 19:58:00,21.7,10.3,30.26,East,87,0.0,3.0,61,0.00,,,0.00,vanprod-2.5-rc3,2013-01-24 02:58:00,
2013-01-23 20:03:00,21.5,10.5,30.26,East,83,3.0,3.0,62,0.00,,,0.00,vanprod-2.5-rc3,2013-01-24 03:03:00,
2013-01-23 20:08:00,21.5,10.5,30.26,East,83,3.0,4.0,62,0.00,,,0.00,vanprod-2.5-rc3,2013-01-24 03:08:00,
2013-01-23 20:13:00,21.2,10.6,30.26,East,83,4.0,5.0,63,0.00,,,0.00,vanprod-2.5-rc3,2013-01-24 03:13:00,
2013-01-23 20:18:00,21.1,10.8,30.27,East,83,4.0,5.0,64,0.00,,,0.00,vanprod-2.5-rc3,2013-01-24 03:18:00,
2013-01-23 20:23:00,21.1,11.2,30.27,East,83,3.0,3.0,65,0.00,,,0.00,vanprod-2.5-rc3,2013-01-24 03:23:00,
2013-01-23 20:28:00,21.3,11.4,30.27,East,83,0.0,0.0,65,0.00,,,0.00,vanprod-2.5-rc3,2013-01-24 03:28:00,
2013-01-23 20:33:00,21.5,11.6,30.28,East,83,0.0,0.0,65,0.00,,,0.00,vanprod-2.5-rc3,2013-01-24 03:33:00,
2013-01-23 20:38:00,21.6,11.7,30.27,East,83,0.0,0.0,65,0.00,,,0.00,vanprod-2.5-rc3,2013-01-24 03:38:00,
2013-01-23 20:43:00,21.7,11.8,30.27,East,83,0.0,0.0,65,0.00,,,0.00,vanprod-2.5-rc3,2013-01-24 03:43:00,
2013-01-23 20:48:00,21.6,11.0,30.27,East,83,0.0,0.0,63,0.00,,,0.00,vanprod-2.5-rc3,2013-01-24 03:48:00,
2013-01-23 20:53:00,21.5,11.2,30.27,East,83,0.0,0.0,64,0.00,,,0.00,vanprod-2.5-rc3,2013-01-24 03:53:00,
2013-01-23 20:58:00,21.4,10.4,30.27,East,83,0.0,0.0,62,0.00,,,0.00,vanprod-2.5-rc3,2013-01-24 03:58:00,
2013-01-23 21:03:00,21.5,10.9,30.26,East,83,0.0,0.0,63,0.00,,,0.00,vanprod-2.5-rc3,2013-01-24 04:03:00,
2013-01-23 21:08:00,21.3,10.7,30.25,East,83,0.0,0.0,63,0.00,,,0.00,vanprod-2.5-rc3,2013-01-24 04:08:00,
2013-01-23 21:13:00,21.3,11.0,30.26,East,83,0.0,0.0,64,0.00,,,0.00,vanprod-2.5-rc3,2013-01-24 04:13:00,
2013-01-23 21:18:00,21.2,10.6,30.26,East,83,0.0,0.0,63,0.00,,,0.00,vanprod-2.5-rc3,2013-01-24 04:18:00,
2013-01-23 21:23:00,21.1,10.5,30.26,East,83,0.0,0.0,63,0.00,,,0.00,vanprod-2.5-rc3,2013-01-24 04:23:00,
2013-01-23 21:28:00,20.5,10.3,30.26,East,83,0.0,0.0,64,0.00,,,0.00,vanprod-2.5-rc3,2013-01-24 04:28:00,
2013-01-23 21:33:00,20.4,10.5,30.27,East,83,0.0,0.0,65,0.00,,,0.00,vanprod-2.5-rc3,2013-01-24 04:33:00,
2013-01-23 21:38:00,20.6,9.7,30.26,East,83,0.0,0.0,62,0.00,,,0.00,vanprod-2.5-rc3,2013-01-24 04:38:00,
2013-01-23 21:43:00,20.0,9.1,30.27,East,83,0.0,0.0,62,0.00,,,0.00,vanprod-2.5-rc3,2013-01-24 04:43:00,
2013-01-23 21:48:00,19.7,8.8,30.27,East,83,0.0,0.0,62,0.00,,,0.00,vanprod-2.5-rc3,2013-01-24 04:48:00,
2013-01-23 21:53:00,19.3,9.1,30.27,East,83,0.0,0.0,64,0.00,,,0.00,vanprod-2.5-rc3,2013-01-24 04:53:00,
2013-01-23 21:58:00,19.0,9.2,30.27,East,83,0.0,0.0,65,0.00,,,0.00,vanprod-2.5-rc3,2013-01-24 04:58:00,
2013-01-23 22:00:00,19.0,9.2,30.27,East,83,0.0,0.0,65,0.00,,,0.00,vanprod-2.5-rc3,2013-01-24 05:00:00,
2013-01-23 22:01:00,18.9,9.1,30.27,East,83,0.0,0.0,65,0.00,,,0.00,vanprod-2.5-rc3,2013-01-24 05:01:00,
2013-01-23 22:02:00,18.9,9.1,30.27,East,83,0.0,0.0,65,0.00,,,0.00,vanprod-2.5-rc3,2013-01-24 05:02:00,
2013-01-23 22:07:00,19.0,9.9,30.27,East,83,0.0,0.0,67,0.00,,,0.00,vanprod-2.5-rc3,2013-01-24 05:07:00,
2013-01-23 22:12:00,19.1,10.0,30.27,East,83,0.0,0.0,67,0.00,,,0.00,vanprod-2.5-rc3,2013-01-24 05:12:00,
2013-01-23 22:17:00,19.2,9.7,30.27,East,83,0.0,0.0,66,0.00,,,0.00,vanprod-2.5-rc3,2013-01-24 05:17:00,
2013-01-23 22:22:00,18.9,9.4,30.28,East,83,0.0,0.0,66,0.00,,,0.00,vanprod-2.5-rc3,2013-01-24 05:22:00,
2013-01-23 22:27:00,18.8,9.7,30.28,East,83,0.0,0.0,67,0.00,,,0.00,vanprod-2.5-rc3,2013-01-24 05:27:00,
2013-01-23 22:32:00,18.6,9.5,30.28,East,83,0.0,0.0,67,0.00,,,0.00,vanprod-2.5-rc3,2013-01-24 05:32:00,
2013-01-23 22:37:00,18.4,9.6,30.27,East,83,0.0,0.0,68,0.00,,,0.00,vanprod-2.5-rc3,2013-01-24 05:37:00,
2013-01-23 22:42:00,18.2,9.4,30.27,East,83,0.0,0.0,68,0.00,,,0.00,vanprod-2.5-rc3,2013-01-24 05:42:00,
2013-01-23 22:47:00,18.0,9.2,30.27,East,83,0.0,0.0,68,0.00,,,0.00,vanprod-2.5-rc3,2013-01-24 05:47:00,
2013-01-23 22:52:00,17.9,8.8,30.27,East,83,0.0,0.0,67,0.00,,,0.00,vanprod-2.5-rc3,2013-01-24 05:52:00,
2013-01-23 22:57:00,17.7,8.9,30.27,East,83,0.0,0.0,68,0.00,,,0.00,vanprod-2.5-rc3,2013-01-24 05:57:00,
2013-01-23 23:02:00,17.7,8.6,30.26,East,83,0.0,0.0,67,0.00,,,0.00,vanprod-2.5-rc3,2013-01-24 06:02:00,
2013-01-23 23:07:00,17.6,8.2,30.26,East,82,0.0,0.0,66,0.00,,,0.00,vanprod-2.5-rc3,2013-01-24 06:07:00,
2013-01-23 23:12:00,17.6,8.9,30.29,East,82,0.0,0.0,68,0.00,,,0.00,vanprod-2.5-rc3,2013-01-24 06:12:00,
2013-01-23 23:17:00,17.9,9.5,30.30,East,83,0.0,0.0,69,0.00,,,0.00,vanprod-2.5-rc3,2013-01-24 06:17:00,
2013-01-23 23:22:00,18.1,9.7,30.30,East,82,0.0,0.0,69,0.00,,,0.00,vanprod-2.5-rc3,2013-01-24 06:22:00,
2013-01-23 23:27:00,18.0,8.9,30.30,East,82,0.0,0.0,67,0.00,,,0.00,vanprod-2.5-rc3,2013-01-24 06:27:00,
2013-01-23 23:32:00,17.8,8.7,30.30,East,82,0.0,0.0,67,0.00,,,0.00,vanprod-2.5-rc3,2013-01-24 06:32:00,
2013-01-23 23:37:00,17.5,8.4,30.27,ENE,78,0.0,0.0,67,0.00,,,0.00,vanprod-2.5-rc3,2013-01-24 06:37:00,
2013-01-23 23:42:00,17.3,8.6,30.28,ENE,77,0.0,0.0,68,0.00,,,0.00,vanprod-2.5-rc3,2013-01-24 06:42:00,
2013-01-23 23:47:00,17.1,8.4,30.29,ENE,77,0.0,0.0,68,0.00,,,0.00,vanprod-2.5-rc3,2013-01-24 06:47:00,
2013-01-23 23:52:00,17.1,8.7,30.28,ENE,78,0.0,0.0,69,0.00,,,0.00,vanprod-2.5-rc3,2013-01-24 06:52:00,
2013-01-23 23:57:00,17.1,8.7,30.28,ENE,78,0.0,0.0,69,0.00,,,0.00,vanprod-2.5-rc3,2013-01-24 06:57:00,